Weather History for Montauk, NY

Change the Weather History Date:

Tuesday, February 18, 2014

  Actual Average (KHTO) Record (KHTO)
Temperature  
Mean Temperature 32 °F -  
Max Temperature 43 °F 37 °F 61 °F (1981)
Min Temperature 21 °F 24 °F -1 °F (1979)
Degree Days  
Heating Degree Days 33    
Moisture  
Dew Point 27 °F    
Average Humidity 77    
Maximum Humidity 93    
Minimum Humidity 42    
Precipitation  
Precipitation 0.36 in - - ()
Sea Level Pressure  
Sea Level Pressure 30.11 in    
Wind  
Wind Speed 6 mph (SSW)    
Max Wind Speed 16 mph    
Max Gust Speed 28 mph    
Averages and records for this station are not official NWS values.
T = Trace of Precipitation, MM = Missing Value Source: NWS Daily Summary

Daily Weather History Graph

Daily Weather History Graph

Search for Another Location

Airport:

Trip Planner

Search our weather history database for the weather conditions in past years. The results will help you decide how hot, cold, wet, or windy it might be!

Date:

Astronomy

Feb. 18, 2014 Rise Set
Actual Time 6:38 AM EST 5:25 PM EST
Civil Twilight 6:10 AM EST 5:53 PM EST
Nautical Twilight 5:37 AM EST 6:25 PM EST
Astronomical Twilight 5:06 AM EST 6:57 PM EST
Moon 9:18 PM EST (2/18) 8:06 AM EST (2/18)
Length of Visible Light 11h 43m
Length of Day
10h 47m
Waning Gibbous, 87% of the Moon is Illuminated
Feb 18
Waning Gibbous
Feb 22
Last Quarter
Mar 1
New
Mar 8
First Quarter
Mar 16
Full

Hourly Weather History & Observations

Time (EST) Temp. Windchill Dew Point Humidity Pressure Visibility Wind Dir Wind Speed Gust Speed Precip Events Conditions
12:54 AM 24.1 °F - 3.9 °F 42% 30.36 in - Calm Calm - N/A   Unknown
1:54 AM 21.9 °F - 10.0 °F 60% 30.35 in - Calm Calm - N/A   Unknown
2:54 AM 27.0 °F - 12.9 °F 56% 30.32 in - Calm Calm - N/A   Unknown
3:54 AM 30.9 °F 26.2 °F 15.1 °F 52% 30.28 in - ESE 4.6 mph - N/A   Unknown
4:54 AM 33.1 °F 26.9 °F 19.9 °F 59% 30.30 in - SSE 6.9 mph - N/A   Unknown
5:54 AM 34.0 °F 28.8 °F 21.9 °F 61% 30.25 in - Variable 5.8 mph - N/A   Unknown
6:54 AM 36.0 °F 29.6 °F 24.1 °F 62% 30.21 in - SE 8.1 mph - N/A   Unknown
7:54 AM 37.0 °F 31.0 °F 26.1 °F 65% 30.22 in - SE 8.1 mph - N/A   Unknown
8:54 AM 36.0 °F 29.0 °F 30.9 °F 82% 30.17 in - SE 9.2 mph - N/A   Unknown
9:54 AM 37.0 °F 30.4 °F 33.1 °F 86% 30.13 in - ESE 9.2 mph 18.4 mph 0.03 in   Unknown
10:54 AM 36.0 °F 28.0 °F 33.1 °F 89% 30.09 in - ESE 11.5 mph 21.9 mph 0.14 in   Unknown
11:54 AM 37.9 °F 30.5 °F 36.0 °F 93% 30.03 in - ESE 11.5 mph 27.6 mph 0.05 in   Unknown
12:54 PM 39.9 °F 32.9 °F 37.9 °F 93% 29.93 in - ESE 11.5 mph 26.5 mph 0.05 in   Unknown
1:54 PM 43.0 °F 35.4 °F 39.9 °F 89% 29.88 in - SSE 16.1 mph 27.6 mph 0.08 in   Unknown
2:54 PM 37.9 °F 30.5 °F 34.0 °F 86% 29.91 in - West 11.5 mph - 0.01 in   Unknown
3:54 PM 36.0 °F 29.6 °F 32.0 °F 86% 29.93 in - West 8.1 mph - N/A   Unknown
4:54 PM 35.1 °F 27.9 °F 30.9 °F 85% 29.95 in - West 9.2 mph - N/A   Unknown
5:54 PM 34.0 °F 24.6 °F 30.0 °F 85% 29.97 in - West 13.8 mph 21.9 mph N/A   Unknown
6:54 PM 33.1 °F 26.1 °F 28.9 °F 85% 30.00 in - West 8.1 mph 17.3 mph N/A   Unknown
7:54 PM 33.1 °F 25.5 °F 28.9 °F 85% 30.03 in - West 9.2 mph - N/A   Unknown
8:54 PM 33.1 °F 26.1 °F 28.9 °F 85% 30.05 in - West 8.1 mph - N/A   Unknown
9:54 PM 33.1 °F 27.7 °F 28.9 °F 85% 30.08 in - West 5.8 mph - N/A   Unknown
10:54 PM 33.1 °F 27.7 °F 28.9 °F 85% 30.08 in - West 5.8 mph - N/A   Unknown
11:54 PM 33.1 °F 28.7 °F 28.9 °F 85% 30.11 in - WSW 4.6 mph - N/A   Unknown